Wind_Speed
52 52 51 48 50 47 40 36 34 34 33 32 33 34 33 34 32 31 35 41 44 48 48 54 54 53 49 42 38 39 35 33 31 21 25 23 20 19 20 19 13 14 16 15
52 52 50 49 50 46 43 38 37 37 37 35 35 37 36 37 37 39 36 40 45 46 49 53 57 57 57 50 44 46 45 40 39 40 31 27 27 25 24 21 13 11 12 12
50 49 49 50 49 45 41 39 39 40 41 43 41 40 39 39 38 39 44 42 42 48 48 50 54 59 60 56 56 53 54 52 51 49 46 43 34 29 27 20 10 11 10 12
46 47 46 49 47 48 44 40 42 42 43 44 44 43 42 41 39 39 42 46 45 45 50 52 53 56 58 66 64 59 60 55 54 54 47 48 38 25 25 22 16 11 10 13
44 45 43 46 48 48 49 46 45 44 45 44 45 47 45 46 43 43 43 45 47 47 46 52 56 56 60 61 61 60 63 59 61 55 52 54 52 36 28 21 19 16 11 18
42 41 42 44 47 49 48 48 45 47 45 45 44 47 46 47 46 46 43 45 48 49 50 49 53 59 61 62 61 58 56 60 60 61 58 59 57 53 45 39 31 25 30 27
44 43 40 43 46 49 49 47 47 45 43 41 38 38 40 42 44 45 46 47 47 46 49 53 53 55 60 62 65 64 62 59 61 62 63 60 61 59 55 55 52 48 41 28
45 44 42 43 46 46 45 45 44 43 41 40 40 39 38 37 38 41 44 49 51 49 53 54 56 57 57 58 64 67 68 66 64 68 69 67 71 72 68 61 59 55 47 32
47 47 46 47 48 45 42 42 43 43 43 42 42 42 41 42 41 40 39 41 45 47 55 56 57 55 56 60 60 64 68 72 71 71 71 74 75 76 78 72 64 58 53 43
51 51 51 50 45 43 41 42 42 42 44 45 46 46 44 43 44 45 46 47 47 43 45 55 59 57 57 61 64 62 64 70 75 75 76 76 75 79 80 76 69 61 54 45
56 56 51 45 44 42 41 43 43 45 46 46 46 48 48 50 51 50 49 49 48 49 49 53 57 56 58 62 67 67 65 66 68 74 77 76 77 77 79 80 73 68 62 57
50 47 44 45 42 42 42 43 44 46 47 47 48 49 50 52 53 55 56 57 57 58 60 59 59 59 63 65 68 70 69 68 69 72 71 74 78 78 79 77 75 72 70 65
41 42 43 41 44 45 45 45 48 50 50 51 52 52 55 57 59 57 58 58 60 63 66 66 63 60 63 68 70 67 69 72 73 71 70 70 75 80 79 77 77 75 71 69
42 41 39 43 45 47 48 50 51 53 54 55 57 60 59 59 60 61 63 62 63 64 63 58 57 58 63 63 62 64 66 69 72 72 74 69 69 75 79 83 79 76 76 72
36 39 43 45 47 49 50 52 54 59 61 64 65 64 64 65 63 63 63 60 58 59 56 50 43 45 49 53 58 59 61 64 68 71 74 70 66 64 70 78 81 77 75 72
39 41 44 48 49 50 52 56 59 64 68 70 72 71 68 63 60 58 57 56 54 55 36 33 34 33 39 47 52 56 61 64 66 71 70 66 63 61 64 66 74 75 76 77
42 44 46 47 48 53 57 61 63 67 70 72 71 68 64 61 58 54 52 51 45 26 27 23 15 17 26 32 42 49 54 61 63 64 60 59 59 59 62 62 65 67 68 71
44 44 45 50 54 58 62 64 66 67 70 70 67 62 59 55 51 49 45 30 16 19 11 11 12 13 14 17 22 34 40 47 53 52 52 51 53 54 57 60 63 63 62 64
45 48 50 54 57 60 63 64 65 69 69 64 61 59 53 49 43 33 15 9 7 4 6 8 6 6 8 8 8 12 23 32 35 38 39 42 43 44 47 53 56 55 56 58
47 51 54 58 61 62 63 63 66 70 66 60 58 52 42 33 22 11 7 4 13 15 11 7 6 8 8 9 8 11 16 23 30 35 39 38 38 39 40 43 46 46 48 52
49 53 56 58 62 62 63 67 65 65 61 57 52 37 26 16 12 8 12 27 19 15 11 6 4 11 11 8 10 14 18 21 23 26 29 29 30 30 30 30 32 37 42 38
51 55 59 60 60 63 69 67 62 62 61 51 37 24 13 14 14 21 34 31 24 15 8 10 10 11 11 9 10 14 16 17 19 20 21 22 22 21 24 27 29 26 26 30
54 57 58 59 63 69 67 63 62 61 52 38 25 15 22 19 23 39 38 28 20 17 15 10 9 6 10 10 14 19 21 22 26 27 28 29 28 22 18 15 11 10 9 18
56 56 57 64 67 63 60 60 60 51 39 27 18 20 31 31 35 45 33 29 25 19 16 15 14 22 19 18 24 27 24 21 23 23 19 24 15 11 12 8 8 12 9 8
55 57 64 65 64 60 61 55 48 40 29 21 18 34 37 34 46 41 34 33 22 16 18 14 21 19 21 20 12 6 13 11 6 8 17 14 8 10 7 4 7 13 19 20
57 65 62 63 62 62 52 41 34 30 25 20 30 42 41 36 44 43 37 31 25 22 23 18 19 21 24 18 11 8 11 19 22 32 29 26 7 8 7 11 10 15 20 23
60 57 61 61 61 51 39 28 23 21 21 25 43 45 43 37 43 48 40 35 31 26 29 25 24 20 18 16 12 10 12 26 30 33 31 22 23 19 16 21 21 20 22 22
Wind_Direction
284 287 290 293 293 296 295 293 288 284 283 283 284 279 277 274 269 255 245 249 246 245 241 239 233 235 234 235 232 229 226 222 229 229 220 224 250 266 278 291 306 283 274 269
280 282 285 286 285 290 290 289 288 288 288 285 281 280 276 272 269 270 259 246 249 247 245 243 244 239 240 241 240 242 237 234 234 235 233 254 246 239 260 268 280 292 285 274
276 279 282 283 286 284 283 285 286 286 288 290 286 281 277 274 270 267 268 262 252 250 249 246 244 246 242 244 251 248 248 242 238 242 244 251 250 250 249 231 269 292 295 284
273 276 280 282 284 285 287 288 289 289 287 286 287 287 284 279 275 270 268 268 262 253 250 249 247 242 244 240 240 245 244 245 247 250 250 252 253 245 221 227 234 235 296 310
268 270 274 280 283 288 291 293 290 288 288 287 286 284 283 280 276 272 265 265 267 262 251 247 249 246 244 247 245 242 241 243 250 245 245 250 254 247 239 242 244 228 270 291
265 270 274 279 284 287 290 291 292 292 290 288 286 284 281 279 277 274 271 267 264 263 261 251 244 246 247 248 248 246 241 238 242 244 249 253 253 254 252 242 235 227 260 272
272 273 275 281 283 291 293 295 292 293 295 296 294 290 290 287 282 278 271 266 262 260 261 260 255 248 246 245 245 243 245 243 237 239 244 246 251 249 251 247 252 252 268 266
272 275 279 281 288 288 290 288 288 291 293 292 292 293 291 290 290 286 279 273 269 263 258 254 254 253 250 246 242 242 242 237 235 235 236 234 240 247 250 250 256 260 263 252
274 277 281 285 287 287 285 280 286 292 292 291 290 290 289 287 289 288 287 284 278 270 266 262 258 253 254 252 244 240 236 239 235 232 233 236 237 243 250 254 252 253 257 256
274 278 282 284 284 283 276 281 287 288 291 294 295 293 291 290 286 289 290 291 292 285 273 270 262 256 251 253 253 247 244 237 236 235 231 233 235 240 244 249 251 251 252 250
276 279 281 280 280 274 275 280 283 289 291 292 294 293 291 292 292 287 284 285 285 286 283 278 273 263 251 249 248 250 248 247 242 237 236 234 234 236 240 244 247 248 247 248
275 275 277 277 273 274 275 279 283 290 292 291 290 292 293 292 290 288 288 287 287 288 287 281 273 266 263 254 247 244 244 246 246 243 240 240 237 235 237 239 244 247 249 244
271 274 272 268 273 273 276 283 288 292 293 293 292 293 294 293 290 289 286 284 286 288 285 280 277 273 264 258 256 249 243 242 243 244 243 237 239 240 239 239 238 239 242 244
272 269 267 270 272 274 278 283 288 291 291 291 291 293 291 289 288 287 287 285 285 285 284 285 282 272 265 260 255 252 249 245 243 242 243 239 236 238 240 241 240 238 238 241
264 267 273 276 277 278 282 287 291 293 295 295 295 294 293 292 291 290 289 288 289 289 292 289 280 273 265 260 255 250 246 245 242 242 242 241 236 233 238 240 241 240 241 239
271 274 276 278 280 284 288 292 295 297 298 297 297 297 297 295 294 292 290 290 290 294 285 286 283 275 262 257 252 246 242 237 236 237 238 239 239 234 236 239 240 240 239 241
274 275 277 281 286 290 292 296 297 297 298 298 299 299 297 297 294 292 290 290 292 281 290 292 295 290 273 265 257 250 241 239 238 235 235 234 234 235 236 238 240 241 240 240
274 279 282 284 288 292 296 298 299 300 299 298 298 298 297 295 293 290 288 287 278 282 300 331 349 340 317 283 264 251 236 237 242 238 233 232 232 232 233 237 241 242 242 242
277 280 285 289 292 295 296 299 299 299 299 300 302 300 298 294 289 285 261 283 269 339 69 68 44 13 345 323 278 249 237 230 235 237 230 223 223 225 230 233 239 244 246 246
281 284 286 290 293 296 298 299 301 301 301 303 305 302 296 287 274 221 229 206 131 127 111 88 40 25 9 345 308 259 227 229 226 223 220 219 221 226 228 230 237 239 244 247
286 289 292 294 297 300 301 300 302 301 303 308 305 298 281 264 194 188 145 135 129 103 95 92 39 17 345 287 255 243 246 233 220 218 217 217 219 220 225 232 238 243 245 244
290 292 294 297 299 302 305 303 304 303 305 307 298 281 249 181 172 148 143 127 114 97 113 77 57 10 329 307 253 234 221 211 208 211 216 219 218 219 222 223 231 237 233 228
293 296 298 300 301 305 304 303 302 302 305 298 282 245 180 169 157 152 140 135 128 124 112 127 116 107 120 119 101 92 108 118 121 121 129 123 115 113 120 127 137 146 156 165
297 298 301 303 305 303 302 304 304 303 299 283 249 196 170 166 159 153 152 144 137 130 121 141 147 145 148 136 128 122 123 118 125 126 124 127 113 104 123 106 117 125 124 153
298 300 306 306 305 307 306 304 299 294 284 259 214 175 171 165 164 162 159 142 133 135 116 143 152 155 160 160 112 119 158 170 184 144 130 156 124 111 67 258 163 164 194 198
302 306 308 308 308 309 308 301 289 275 259 229 190 174 172 169 170 167 160 145 148 154 129 133 150 167 166 172 159 126 147 145 130 123 125 134 202 176 157 192 212 201 191 199
309 309 309 309 312 314 311 299 281 256 225 198 178 177 174 172 173 171 171 164 159 160 148 139 141 159 171 172 178 152 117 162 165 177 191 224 218 227 236 225 225 222 225 244
Height
10903 10901 10899 10900 10898 10899 10903 10904 10903 10902 10901 10901 10898 10896 10896 10895 10896 10897 10898 10896 10894 10895 10898 10900 10905 10910 10915 10920 10922 10925 10930 10934 10937 10941 10944 10943 10943 10943 10947 10950 10947 10949 10947 10947
10896 10894 10893 10891 10888 10892 10892 10893 10891 10889 10887 10889 10889 10886 10887 10887 10886 10883 10885 10886 10885 10886 10887 10891 10895 10900 10903 10906 10912 10918 10922 10928 10931 10933 10933 10933 10933 10934 10938 10942 10940 10941 10943 10944
10889 10886 10885 10880 10881 10881 10882 10882 10881 10880 10877 10874 10876 10876 10875 10875 10875 10873 10869 10872 10875 10874 10877 10881 10884 10889 10895 10900 10900 10905 10909 10916 10921 10922 10924 10923 10923 10923 10927 10933 10934 10936 10938 10938
10879 10877 10877 10870 10869 10868 10869 10872 10870 10869 10866 10863 10861 10861 10861 10860 10859 10859 10857 10855 10858 10861 10863 10865 10868 10877 10881 10884 10890 10894 10898 10899 10904 10907 10909 10910 10913 10916 10918 10923 10927 10933 10935 10935
10871 10869 10868 10862 10859 10858 10855 10857 10856 10855 10853 10852 10849 10846 10845 10843 10845 10844 10844 10842 10840 10842 10848 10851 10852 10856 10861 10864 10873 10879 10883 10891 10889 10890 10894 10894 10898 10910 10914 10916 10920 10927 10928 10931
10859 10859 10858 10852 10848 10847 10847 10844 10844 10840 10839 10837 10836 10830 10830 10829 10829 10828 10830 10828 10828 10827 10827 10833 10838 10839 10843 10847 10851 10858 10863 10870 10877 10880 10879 10881 10885 10893 10905 10910 10915 10916 10919 10925
10845 10846 10847 10843 10839 10836 10833 10830 10828 10827 10825 10823 10822 10820 10815 10813 10812 10812 10810 10811 10812 10814 10814 10815 10819 10823 10825 10830 10832 10838 10844 10850 10854 10863 10867 10871 10873 10878 10888 10897 10901 10906 10909 10914
10833 10834 10835 10832 10829 10827 10824 10819 10817 10815 10815 10812 10810 10808 10806 10803 10800 10796 10794 10793 10794 10798 10797 10798 10801 10803 10808 10811 10815 10819 10823 10829 10835 10841 10847 10855 10859 10861 10868 10878 10885 10891 10897 10904
10821 10821 10822 10820 10817 10815 10813 10810 10807 10804 10802 10800 10798 10796 10794 10792 10788 10786 10784 10781 10779 10782 10777 10779 10782 10786 10789 10788 10796 10798 10804 10810 10816 10821 10827 10836 10841 10847 10852 10859 10871 10878 10884 10891
10808 10809 10808 10807 10806 10803 10801 10799 10797 10794 10790 10787 10783 10781 10780 10779 10777 10774 10769 10766 10764 10766 10766 10760 10760 10766 10770 10769 10770 10778 10783 10787 10793 10800 10809 10817 10825 10831 10836 10842 10851 10860 10868 10875
10797 10794 10795 10794 10792 10790 10789 10787 10785 10783 10780 10776 10773 10769 10767 10762 10760 10759 10758 10754 10751 10749 10749 10744 10738 10744 10748 10749 10749 10754 10760 10764 10771 10777 10783 10794 10803 10811 10817 10824 10834 10842 10851 10859
10785 10783 10783 10780 10778 10778 10777 10775 10774 10771 10768 10764 10761 10756 10753 10748 10745 10742 10738 10734 10731 10729 10727 10726 10726 10727 10724 10723 10726 10729 10736 10742 10746 10752 10764 10772 10779 10788 10795 10804 10814 10822 10830 10841
10771 10770 10769 10768 10766 10765 10763 10762 10760 10756 10753 10749 10745 10743 10738 10734 10727 10724 10721 10718 10714 10710 10705 10700 10700 10701 10699 10698 10700 10711 10717 10719 10723 10731 10740 10749 10757 10765 10774 10784 10793 10802 10812 10818
10758 10757 10756 10755 10753 10752 10751 10749 10746 10742 10739 10735 10730 10725 10722 10718 10711 10705 10700 10697 10694 10689 10683 10680 10677 10672 10668 10672 10679 10687 10692 10699 10705 10711 10715 10728 10739 10749 10755 10762 10772 10782 10791 10799
10746 10744 10742 10741 10740 10738 10736 10734 10730 10724 10719 10714 10709 10706 10700 10694 10688 10683 10677 10673 10670 10664 10661 10656 10651 10648 10648 10649 10655 10660 10667 10674 10681 10687 10694 10706 10720 10729 10736 10742 10750 10762 10772 10782
10734 10733 10731 10728 10726 10723 10721 10717 10713 10705 10698 10690 10685 10679 10674 10671 10666 10659 10655 10652 10649 10645 10642 10640 10636 10633 10630 10628 10631 10635 10641 10647 10654 10663 10675 10689 10700 10711 10718 10724 10731 10741 10753 10760
10723 10721 10719 10716 10713 10708 10705 10701 10695 10687 10679 10670 10663 10657 10652 10648 10644 10640 10636 10634 10633 10630 10628 10627 10624 10621 10618 10616 10615 10617 10623 10631 10640 10647 10662 10673 10684 10694 10702 10709 10715 10724 10732 10742
10709 10709 10708 10703 10699 10694 10688 10683 10677 10668 10659 10652 10646 10640 10634 10630 10626 10622 10620 10619 10619 10620 10620 10619 10616 10613 10611 10608 10605 10606 10611 10620 10628 10639 10649 10662 10671 10680 10690 10697 10703 10708 10717 10725
10700 10697 10693 10689 10685 10679 10673 10666 10658 10649 10640 10635 10629 10621 10615 10611 10609 10608 10608 10611 10613 10614 10615 10614 10613 10610 10609 10606 10603 10602 10606 10613 10623 10632 10640 10650 10660 10668 10678 10685 10691 10699 10704 10709
10688 10685 10679 10674 10668 10663 10658 10649 10642 10630 10622 10618 10611 10603 10598 10596 10596 10598 10603 10607 10610 10612 10611 10610 10609 10607 10605 10604 10603 10605 10606 10610 10616 10623 10632 10641 10650 10658 10667 10674 10682 10689 10691 10695
10674 10669 10663 10658 10651 10643 10638 10630 10623 10612 10606 10602 10593 10589 10587 10588 10589 10595 10600 10605 10608 10609 10609 10609 10609 10607 10606 10603 10601 10601 10604 10609 10613 10619 10627 10635 10643 10653 10660 10667 10672 10676 10680 10687
10660 10653 10647 10641 10634 10627 10618 10609 10603 10596 10590 10586 10580 10580 10582 10585 10588 10594 10599 10603 10605 10607 10608 10609 10609 10609 10606 10601 10600 10600 10602 10607 10612 10618 10625 10632 10639 10646 10653 10659 10663 10667 10671 10677
10643 10637 10630 10623 10616 10609 10599 10592 10586 10581 10577 10572 10571 10574 10577 10582 10588 10594 10597 10600 10603 10607 10609 10610 10610 10608 10607 10608 10607 10606 10607 10610 10615 10621 10627 10634 10640 10646 10652 10657 10661 10665 10668 10675
10626 10620 10614 10606 10598 10591 10584 10578 10569 10565 10563 10561 10563 10568 10573 10580 10586 10592 10596 10600 10604 10607 10609 10610 10610 10611 10614 10616 10618 10619 10622 10625 10629 10632 10636 10640 10644 10648 10652 10655 10661 10664 10669 10673
10611 10604 10598 10588 10578 10571 10566 10559 10552 10549 10550 10552 10557 10562 10569 10578 10584 10590 10596 10600 10604 10608 10609 10611 10613 10615 10618 10622 10624 10625 10627 10630 10634 10637 10639 10639 10645 10651 10652 10657 10661 10665 10668 10671
10597 10588 10579 10570 10560 10553 10545 10538 10535 10534 10538 10544 10550 10558 10567 10576 10583 10589 10595 10599 10604 10606 10608 10611 10614 10618 10622 10626 10629 10630 10631 10633 10638 10637 10639 10640 10640 10651 10654 10654 10660 10662 10664 10668
10583 10574 10564 10555 10546 10535 10528 10524 10522 10522 10526 10535 10545 10554 10564 10573 10580 10587 10592 10597 10603 10606 10608 10611 10614 10618 10622 10627 10631 10633 10636 10638 10642 10644 10645 10648 10650 10653 10657 10656 10655 10658 10661 10663